Location: Hackbridge
(51.3833°N, 0.1500°W)
Time: 17:55:53
(UTC+00:00)

SPOT 3 Rocket - Pass Details

Date: 13 October 2019
Orbit: 779 x 794 km, 98.8° (Epoch: 12 November)

Event Time Altitude Azimuth Distance (km) Brightness Sun altitude
Exits shadow 19:10:30 32° 130° (SE) 1,323 4.2 -19.1°
Maximum altitude 19:12:41 56° 68° (ENE) 937 3.6 -19.5°
Drops below altitude 10° 19:17:46 10° 351° (N) 2,366 6.3 -20.2°
Sets 19:20:09 0° 348° (NNW) 3,301 7.1 -20.6°
